Regional Weather Roundup
Issued by NWS

Home | Current Version | Previous Version | Text Only | Print | Product List | Glossary On
Versions: 1 2 3 4 5 6 7 8 9 10 11 12 13 14 15 16 17 18 19 20 21 22 23 24 25 26 27 28 29 30 31 32 33 34 35 36 37 38 39 40 41 42 43 44 45 46 47 48 49 50
000
ASUS42 KTBW 232215
RWRFL
FLORIDA REGIONAL WEATHER ROUNDUP
NATIONAL WEATHER SERVICE TAMPA BAY RUSKIN FL
500 PM EST FRI FEB 23 2018

NOTE: "FAIR" INDICATES FEW OR NO CLOUDS BELOW 12,000 FEET WITH NO
SIGNIFICANT WEATHER AND/OR OBSTRUCTIONS TO VISIBILITY.

FLZ001>010-012>015-112-114-115-232300-
PANHANDLE FLORIDA

CITY           SKY/WX    TMP DP  RH WIND       PRES   REMARKS
PENSACOLA      CLOUDY    74  69  85 SE9       30.24F
CRESTVIEW      FAIR      79  65  62 S12       30.26F
DUKE FIELD     MOSUNNY   77  67  70 S14       30.25F
VALPARAISO     MOSUNNY   73  69  85 SE10      30.24F
MARY ESTHER    PTSUNNY   73  69  86 SE9       30.24
PANAMA CITY    FAIR      78  62  57 S10       30.25F
TYNDALL AFB    MOSUNNY   76  65  70 S13       30.26F
APALACHICOLA   FAIR      74  69  85 SE9       30.28F

STATION/POSITION SKY/WX   TEMP    WIND        PRES    WAVE   SWELL
                          AIR SEA DIR/SP/G            HT/PER HT/PER
                          (F)     (DEG/KT/KT) (MB)    (FT/S) (FT/S)
29.2N   88.2W                 77  120/ 16/ 19 1022.8F   5/ 7
28.8N   86.0W              74 76  120/ 10/ 12 1024.2S   4/ 5   3/ 5
PANAMA CITY BEAC           70 70  150/  7/  9 1025.3F
TOWER C                    67      80/  8/  8 1026.1S

$$
FLZ011-016>038-118-127-128-134-139-239-232300-
NORTH FLORIDA

CITY           SKY/WX    TMP DP  RH WIND       PRES   REMARKS
MARIANNA       CLOUDY    82  61  48 E6        30.23F
TALLAHASSEE    FAIR      81  60  48 SE12      30.27S
PERRY            N/A    N/A N/A N/A SW8       30.28S
CROSS CITY     PTSUNNY   82  60  46 SW9       30.31S
LAKE CITY      FAIR      82  57  42 E5        30.27S
GAINESVILLE    FAIR      81  62  52 SE12      30.29S
MAYPORT NAS    FAIR      72  64  76 E10       30.31F
JACKSONVILLE   FAIR      76  63  64 E14       30.30S
JAX NAS        FAIR      79  63  57 SE14      30.30F
JAX CECIL      SUNNY     79  66  65 E12       30.29S
FERNANDINA BEA PTSUNNY   73  63  68 E9G16     30.31S
ST AUGUSTINE   FAIR      73  66  78 E10       30.32F
PALM COAST     SUNNY     75  64  69 SE9       30.31S

STATION/POSITION SKY/WX   TEMP    WIND        PRES    WAVE   SWELL
                          AIR SEA DIR/SP/G            HT/PER HT/PER
                          (F)     (DEG/KT/KT) (MB)    (FT/S) (FT/S)
SHELL POINT                74     170/  3/  5 1025.3
KEATON BEACH               74     240/  7/  8 1025.7S
CEDAR KEY                  76     310/  8/  9 1025.1S
FERNANDINA                 75 65  130/  6/ 11 1027.5F
30.7N   81.3W                 66                N/A     3/10   2/11
MAYPORT                    71 63   90/  9/ 11 1026.6F
31.4N   80.9W              65 62  130/  4/  6 1027.0F   3/10   3/10
ST AUGUSTINE               70 69   90/  7/  7 1026.6F

$$
FLZ040-043>046-052-053-057-058-063-144-232300-
INTERIOR CENTRAL FLORIDA

CITY           SKY/WX    TMP DP  RH WIND       PRES   REMARKS
OCALA          FAIR      83  64  52 VRB7      30.27S
LEESBURG       FAIR      83  65  54 E14       30.28S
SANFORD        PTSUNNY   80  62  54 E16       30.28F
ORLANDO EXEC   PTSUNNY   81  61  50 E14       30.28S
ORLANDO INTL   FAIR      80  62  54 E12       30.28S
KISSIMMEE      FAIR      82  61  48 E12       30.28S
WINTER HAVEN   CLOUDY    84  59  42 E10       30.27S
LAKELAND       MOSUNNY   84  59  42 SE7       30.26S
BARTOW         MOSUNNY   81  59  47 E10       30.26S
SEBRING        FAIR      84  58  41 E14       30.26S
OKEECHOBEE     FAIR      79  63  57 E9        30.27R

$$
FLZ041-047-054-059-064-141-147-232300-
EAST CENTRAL FLORIDA

CITY           SKY/WX    TMP DP  RH WIND       PRES   REMARKS
ORMOND BEACH   MOSUNNY   75  66  73 SE12G17   30.31S
DAYTONA BEACH  FAIR      76  67  73 SE8G17    30.30F
DELAND         FAIR      81  61  50 E13       30.29S
NEW SMYRNA BEA MOSUNNY   77  66  69 MISG      30.32S
JFK SPACE CTR  FAIR      77  67  69 SE7       30.29S
TITUSVILLE     SUNNY     81  63  54 SE16      30.30S
CAPE CANAVERAL FAIR      77  66  67 SE9       30.29S
PATRICK AFB    FAIR      77  68  73 SE9       30.30S
MELBOURNE      FAIR      79  66  64 E14       30.29S
VERO BEACH     FAIR      79  66  64 E14       30.29F
FT PIERCE      FAIR      76  66  71 E10       30.29S

STATION/POSITION SKY/WX   TEMP    WIND        PRES    WAVE   SWELL
                          AIR SEA DIR/SP/G            HT/PER HT/PER
                          (F)     (DEG/KT/KT) (MB)    (FT/S) (FT/S)
28.5N   80.2W              75 74  120/  8/ 12 1026.3R
TRIDENT PIER               77 75  100/  5/  8 1027.4S
28.4N   80.5W                 74                N/A     3/ 9   2/15
27.5N   80.2W                 75                N/A     5/15   2/15

$$
FLZ050-056-061-142-242-148-248-149-249-151-251-155-255-
160-260-232300-
WEST CENTRAL FLORIDA

CITY           SKY/WX    TMP DP  RH WIND       PRES   REMARKS
BROOKSVILLE    PTSUNNY   83  58  42 E7        30.25F
ST PETE CLEARW PTSUNNY   81  68  64 W12       30.24F
TAMPA INTL     PTSUNNY   85  60  42 SE5       30.24F
MACDILL AFB    PTSUNNY   82  69  64 SW7       30.24S
ST PETERSBURG  PTSUNNY   79  66  64 W10       30.23S
SARASOTA       FAIR      79  67  66 W8        30.23S
VENICE         NOT AVBL

STATION/POSITION SKY/WX   TEMP    WIND        PRES    WAVE   SWELL
                          AIR SEA DIR/SP/G            HT/PER HT/PER
                          (F)     (DEG/KT/KT) (MB)    (FT/S) (FT/S)
27.3N   84.2W                 76                N/A     3/ 5
CLEARWATER BEACH           74 74  320/  6/  8 1024.6F
MIDDLE TAMPA BAY           74     270/  9/ 11 1024.3F
VENICE                     76 76  300/  4/  4 1023.7F

$$
FLZ066-069-070-075>078-162-262-165-265-232300-
SOUTHWEST FLORIDA AND KEYS

CITY           SKY/WX    TMP DP  RH WIND       PRES   REMARKS
PUNTA GORDA    FAIR      83  60  45 E12       30.24S
FT MYERS       PTSUNNY   83  63  50 E8        30.21S
SOUTHWEST INTL CLOUDY    83  63  50 E12       30.22S
NAPLES         FAIR      81  68  64 W7        30.21F
MARCO ISLAND   FAIR      81  63  54 E7        30.22S
IMMOKALEE      FAIR      84  63  48 E14       30.24S
MARATHON       FAIR      80  65  59 E15       30.21S
KEY WEST NAS   FAIR      78  67  68 E21       30.20S
KEY WEST INTL  FAIR      79  67  66 E18G25    30.21S

STATION/POSITION SKY/WX   TEMP    WIND        PRES    WAVE   SWELL
                          AIR SEA DIR/SP/G            HT/PER HT/PER
                          (F)     (DEG/KT/KT) (MB)    (FT/S) (FT/S)
NAPLES                        74  320/  5/  5 1023.1F
DRY TORTUGAS               76      90/ 16/ 19 1022.3R
SAND KEY                   76                 1023.0F
LONG KEY                   77 78   90/ 15/ 17 1022.9
MOLASSES REEF              77 78   90/ 16/ 18 1023.5S

$$
FLZ067-068-071>074-168-172>174-232300-
SOUTHEAST FLORIDA

CITY           SKY/WX    TMP DP  RH WIND       PRES   REMARKS
W PALM BEACH   FAIR      79  66  64 E14       30.27S
BOCA RATON     SUNNY     77  64  65 E9G17     30.26F
FT LAUDER-EXEC FAIR      78  66  66 E12       30.26S
FT LAUDERDALE  FAIR      76  68  76 E15       30.25S
POMPANO BEACH  FAIR      78  67  68 E10       30.26S
PEMBROKE PINES FAIR      79  66  64 E16       30.27S
OPA LOCKA      CLOUDY    78  65  63 E16       30.25S
MIAMI          PTSUNNY   78  66  66 E13       30.25S
WEST KENDALL   FAIR      78  64  61 E16       30.24S
HOMESTEAD      FAIR      78  65  63 NE13      30.23S

STATION/POSITION SKY/WX   TEMP    WIND        PRES    WAVE   SWELL
                          AIR SEA DIR/SP/G            HT/PER HT/PER
                          (F)     (DEG/KT/KT) (MB)    (FT/S) (FT/S)
PORT EVERGLADES            77      70/  8/ 12 1024.6
VIRGINIA KEY               77 78   60/ 13/ 17 1023.4F
LAKE WORTH                 75 77   60/  9/ 12 1026.0S
FOWEY ROCKS                76 77   70/ 17/ 19 1024.7R
SETTLEMENT POINT           75      80/ 15/ 18 1025.4R

$$




USA.gov is the U.S. government's official web portal to all federal, state and local government web resources and services.